Location: Zagreb
(45.8000°N, 16.0000°E)
Time: 22:10:28
(UTC+01:00)

Tiros 1 despin weight - Pass Details

Date: 04 February 2020
Orbit: 594 x 642 km, 48.2° (Epoch: 24 February)

Event Time Altitude Azimuth Distance (km) Brightness Sun altitude
Rises 13:24:46 0° 287° (WNW) 2,878 ? 25.6°
Reaches altitude 10° 13:27:16 10° 277° (W) 1,979 ? 25.5°
Maximum altitude 13:31:14 30° 217° (SW) 1,126 ? 25.2°
Drops below altitude 10° 13:35:13 10° 156° (SSE) 1,996 ? 25.0°
Sets 13:37:45 0° 146° (SE) 2,908 ? 24.8°
